Location: DARK SKY Beskydy - Park tmavé oblohy, www.darkskybeskydy.cz
(49.4926°N, 18.5016°E)
Time: 09:32:42
(UTC+01:00)

Vanguard 2 Rocket - Visible Passes

Search period start: 25 February 2024 00:00
Search period end: 06 March 2024 00:00
Orbit: 554 x 3310 km, 32.9° (Epoch: 24 February)

Date Brightness Start Highest point End Pass type
(mag) Time Alt. Az. Time Alt. Az. Time Alt. Az.
25 Feb 10.5 19:10:37 10° WSW 19:23:34 30° SSW 19:39:14 10° SSE visible
25 Feb 10.9 21:30:52 10° WSW 21:37:50 13° SW 21:45:02 10° SSW visible
26 Feb 10.4 18:08:07 10° WSW 18:20:24 34° SSW 18:36:40 10° SE visible
26 Feb 10.9 20:24:40 10° WSW 20:35:05 19° SW 20:46:37 10° S visible
27 Feb 10.7 19:20:45 10° WSW 19:32:10 24° SSW 19:45:50 10° SSE visible
28 Feb 10.5 18:17:57 10° WSW 18:29:10 28° SSW 18:43:50 10° SSE visible
28 Feb 11.0 20:37:34 10° WSW 20:43:31 12° SW 20:49:52 10° SSW visible
29 Feb 10.9 19:31:46 10° WSW 19:40:46 17° SW 19:51:15 10° S visible
01 Mar 10.8 18:28:16 10° WSW 18:37:57 22° SSW 18:50:13 10° SSE visible
02 Mar 11.1 19:45:44 10° SW 19:49:24 11° SW 19:53:19 10° SSW visible
03 Mar 11.0 18:39:38 10° WSW 18:46:45 15° SSW 18:55:12 10° S visible
